Location: Unspecified
(0.0000°N, 0.0000°E)
Time: 21:14:52
(UTC+00:00)

STARLINK-1920 - Visible Passes

Search period start: 12 January 2025 00:00
Search period end: 22 January 2025 00:00
Orbit: 424 x 439 km, 53.1° (Epoch: 12 January)

Date Brightness Start Highest point End Pass type
(mag) Time Alt. Az. Time Alt. Az. Time Alt. Az.
12 Jan 3.3 18:30:11 10° SSW 18:33:30 53° SE 18:36:48 10° NE visible
14 Jan 5.7 05:25:36 10° N 05:28:02 18° NE 05:30:30 10° ESE visible
14 Jan 5.5 18:40:20 10° WSW 18:42:52 19° NW 18:45:23 10° N visible
16 Jan 3.2 05:33:07 10° NW 05:36:30 63° SW 05:39:54 10° SSE visible
17 Jan 3.6 04:50:49 34° N 04:51:57 54° ENE 04:55:18 10° SE visible
18 Jan 5.7 04:08:24 19° E 04:08:24 19° E 04:09:56 10° ESE visible
18 Jan 5.5 05:43:07 10° WSW 05:43:45 10° SW 05:44:23 10° SW visible
19 Jan 4.7 04:58:48 21° SW 04:58:48 21° SW 05:01:14 10° S visible
20 Jan 5.8 04:15:42 15° SSE 04:15:42 15° SSE 04:16:23 10° SSE visible
